Location: Ailly
(50.0793°N, 1.9944°E)
Time: 16:14:06
(UTC+00:00)

Cosmos 1470 Rocket - Pass Details

Date: 15 January 2026
Orbit: 597 x 626 km, 82.5° (Epoch: 10 February)

Event Time Altitude Azimuth Distance (km) Brightness Sun altitude
Rises 06:42:54 0° 185° (S) 2,843 7.2 -9.7°
Reaches altitude 10° 06:45:06 10° 184° (S) 1,941 6.3 -9.4°
Maximum altitude 06:49:23 80° 98° (E) 616 3.7 -8.7°
Drops below altitude 10° 06:53:42 10° 12° (NNE) 1,949 6.0 -8.1°
Sets 06:55:54 0° 12° (NNE) 2,856 6.8 -7.8°
